[[{"header":{"parameterUnit":"m.s-1","parameterCategory":1,"la1":30.2991,"la2":30.254,"lo1":-89.0895,"lo2":-89.0444,"dy":0.0017,"dx":0.0017,"nx":28,"ny":28,"refTime":"2023-10-22T09:00:00:Z","depth":0,"parameterNumber":2,"parameterNumberName":"U-component_of_WINDS"},"data":[0,0,0,0,0,0,0,0,0,0,0,0,0,0,0,0,0,0,0,0,0,0,0,0,0,0,0,0,0,0,0,0,0,0,0,0,0,0,0,0,0,0,0,0,0,0,0,0,0,0,0,0,0,0,0,0,0,0,0.8924,0.8926,0,0.9048,0.9049,0.9051,0.9078,0.9077,0.9076,0.9075,0.9205,0.9209,0.9213,0,0,0,0,0,0,0,0,0,0,0,0,0,0.8713,0.8717,0.8924,0.8926,0.8927,0.9048,0.9049,0.9051,0.9078,0.9077,0.9076,0.9075,0.9204,0.9209,0.9214,0,0,0,0,0,0,0,0,0,0,0,0,0,0.8818,0.8718,0.8924,0.8955,0.8959,0.9047,0.9049,0.9051,0.9078,0.9077,0.9076,0.9074,0.9202,0.9208,0.9214,0.9281,0,0,0.9234,0.9237,0,0,0,0,0,0,0,0,0.8812,0.8825,0.8949,0.8953,0.8958,0.9046,0.9023,0.9129,0.9079,0.9033,0.9075,0.9074,0.9153,0.9164,0.919,0.9287,0.9293,0.9235,0.9239,0.9241,0.9243,0,0,0,0,0,0,0,0.8805,0.882,0.8973,0.8951,0.8956,0.8964,0.8977,0.9043,0.9099,0.9037,0.9039,0.9053,0.9156,0.9184,0.9193,0.9295,0.9235,0.924,0.9244,0.9247,0.9451,0.9452,0,0,0,0,0,0,0.8792,0.8814,0.8969,0.8977,0.888,0.8968,0.8983,0.9019,0.9099,0.911,0.9054,0.9054,0.9173,0.9186,0.9198,0.928,0.9241,0.9247,0.9251,0.9449,0.9451,0.9453,0,0,0,0,0,0,0.8787,0.8805,0.8964,0.8896,0.8917,0.8974,0.9013,0.9022,0.905,0.9112,0.9122,0.9073,0.9173,0.9189,0.9259,0.9284,0.925,0.9256,0.9447,0.945,0.9452,0.9444,0,0,0,0,0,0,0.8781,0.8803,0.8829,0.8896,0.892,0.9023,0.9015,0.9026,0.9061,0.9062,0.9132,0.9142,0.9173,0.925,0.9266,0.9293,0.9261,0.9445,0.9448,0.9451,0.9442,0.9446,0.9449,0,0,0,0,0,0.8773,0.8823,0.883,0.8849,0.8953,0.9025,0.9038,0.9072,0.9063,0.9089,0.9128,0.914,0.9279,0.9257,0.9275,0.9304,0.9444,0.9447,0.9451,0.9441,0.9445,0.9449,0,0,0,0,0,0,0.8758,0.8832,0.8841,0.8914,0.8963,0.9029,0.9063,0.9076,0.9129,0.9128,0.9168,0.9184,0.9252,0.9285,0.9259,0.9372,0.9361,0.9369,0.9347,0.9352,0.9355,0.9345,0.9266,0,0,0,0,0,0.8763,0.8814,0.8876,0.8935,0.8959,0.9006,0.9039,0.906,0.9113,0.9134,0.9179,0.923,0.9285,0.932,0.9375,0.9448,0.9463,0.9477,0.948,0.9482,0.9488,0.9527,0.9534,0.9464,0.9464,0.9464,0,0,0.8774,0.8821,0.8851,0.8933,0.8973,0.9025,0.9024,0.9079,0.9118,0.9143,0.9211,0.9246,0.9306,0.9377,0.9411,0.9407,0.951,0.9487,0.9488,0.9493,0.9532,0.9538,0.9544,0.9467,0.9466,0.9466,0,0,0.8821,0.8862,0.8914,0.8954,0.9014,0.9045,0.9058,0.9122,0.9145,0.9215,0.9233,0.9281,0.9376,0.9417,0.945,0.951,0.9522,0.9527,0.9544,0.9582,0.9587,0.9592,0.9613,0.962,0.9533,0.9533,0.9533,0,0.8827,0.8906,0.894,0.8994,0.9029,0.9052,0.9105,0.9142,0.9217,0.9241,0.9236,0.9353,0.9396,0.9476,0.949,0.9517,0.9532,0.9519,0.9584,0.9589,0.9594,0.9614,0.9622,0.9533,0.9533,0.9533,0.9533,0,0.891,0.8964,0.8999,0.9069,0.9109,0.9162,0.9204,0.924,0.9258,0.9289,0.9359,0.941,0.9474,0.9495,0.9514,0.9578,0.9574,0.9575,0.9565,0.96,0.962,0.9628,0.9533,0.9533,0.9533,0.9533,0,0,0.8951,0.9038,0.9051,0.9082,0.9149,0.9192,0.9246,0.9308,0.9337,0.9388,0.9434,0.9512,0.9514,0.9552,0.9575,0.9609,0.9651,0.9606,0.9608,0.9612,0.9724,0.9721,0.9729,0.966,0.9661,0.9663,0.9718,0,0.9005,0.9101,0.9133,0.9213,0.9263,0.9285,0.9332,0.9378,0.9409,0.9456,0.9491,0.9545,0.9544,0.9566,0.96,0.9639,0.9674,0.9635,0.9703,0.9705,0.9686,0.974,0.9738,0.9788,0.9726,0.9727,0.9728,0,0.9081,0.9131,0.9216,0.9275,0.9298,0.9339,0.9397,0.9442,0.9495,0.9515,0.9556,0.9577,0.9634,0.962,0.9699,0.9672,0.9702,0.9725,0.9727,0.9735,0.9718,0.9747,0.9805,0.9811,0.9741,0.974,0.9739,0,0.9101,0.919,0.9252,0.9278,0.935,0.9378,0.9409,0.9461,0.9495,0.9546,0.9569,0.9626,0.9658,0.9702,0.9737,0.9724,0.9812,0.9802,0.9831,0.983,0.9848,0.9846,0.991,0.9868,0.9868,0.9868,0.9868,0,0.9158,0.9208,0.9261,0.9299,0.9356,0.9392,0.9448,0.948,0.9526,0.957,0.9593,0.9635,0.9679,0.9727,0.9755,0.9815,0.983,0.9848,0.9854,0.9845,0.9843,0.9865,0.9862,0.987,0.987,0.9869,0.9869,0,0.9189,0.9227,0.9295,0.9357,0.9373,0.9413,0.9465,0.9503,0.9534,0.959,0.9606,0.9655,0.9712,0.9751,0.9825,0.9844,0.9909,0.9916,0.989,0.9893,0.9919,0.9915,0.9998,1.001,0.9961,0.9962,0.9962,0,0.9222,0.9261,0.9326,0.9357,0.9388,0.9438,0.9472,0.9509,0.9544,0.9606,0.9636,0.9694,0.9742,0.9832,0.9875,0.9931,0.9939,0.9964,0.9947,0.9936,0.9938,0.9935,0.9938,0.9966,0.9966,0.9967,0.9967,0,0.9277,0.9293,0.9341,0.9396,0.9436,0.9481,0.9527,0.9551,0.9595,0.9634,0.9691,0.9728,0.9802,0.9859,0.9919,0.9952,0.9967,0.9972,0.9981,0.9971,0.9955,0.9963,0.9896,0.997,0.9969,0.9969,0.9969,0.9969,0.9309,0.9344,0.9395,0.9448,0.9486,0.9527,0.9565,0.96,0.9648,0.971,0.9729,0.9788,0.984,0.9921,0.9954,1.0001,1.0,1.0014,1.0017,1.002,1.0018,0.9947,1.0013,1.0013,1.0013,1.0013,1.0013,0,0.9364,0.9397,0.9445,0.9507,0.9548,0.9558,0.9608,0.9642,0.9694,0.974,0.9786,0.9851,0.9906,0.9953,1.001,1.0038,1.0046,1.0052,1.005,1.0057,1.0017,1.0003,1.0044,1.0044,1.0044,1.0044,1.0044,1.0044,0.9397,0.9456,0.9478,0.9556,0.9589,0.9647,0.9674,0.9713,0.9749,0.9821,0.9866,0.9895,0.9942,1.0002,1.0052,1.0065,1.0084,1.0088,1.0102,1.0064,1.006,1.0056,1.0043,1.0092,1.0092,1.0137,1.0138,1.0138]},{"header":{"parameterUnit":"m.s-1","parameterCategory":1,"la1":30.2991,"la2":30.254,"lo1":-89.0895,"lo2":-89.0444,"dy":0.0017,"dx":0.0017,"nx":28,"ny":28,"refTime":"2023-10-22T09:00:00:Z","depth":0,"parameterNumber":3,"parameterNumberName":"V-component_of_WINDS"},"data":[0,0,0,0,0,0,0,0,0,0,0,0,0,0,0,0,0,0,0,0,0,0,0,0,0,0,0,0,0,0,0,0,0,0,0,0,0,0,0,0,0,0,0,0,0,0,0,0,0,0,0,0,0,0,0,0,0,0,2.3954,2.3953,0,2.3905,2.3905,2.3904,2.3876,2.3876,2.3876,2.3876,2.3821,2.382,2.3819,0,0,0,0,0,0,0,0,0,0,0,0,0,2.4018,2.4017,2.3954,2.3953,2.3953,2.3905,2.3905,2.3904,2.3876,2.3876,2.3876,2.3876,2.3822,2.382,2.3819,0,0,0,0,0,0,0,0,0,0,0,0,0,2.3982,2.4017,2.3954,2.3933,2.3931,2.3905,2.3905,2.3904,2.3876,2.3876,2.3876,2.3876,2.3822,2.382,2.3818,2.3808,0,0,2.3812,2.3811,0,0,0,0,0,0,0,0,2.3984,2.398,2.3937,2.3935,2.3932,2.3897,2.3907,2.3872,2.3876,2.3897,2.3876,2.3876,2.3846,2.3842,2.3833,2.3806,2.3803,2.3812,2.3811,2.381,2.3809,0,0,0,0,0,0,0,2.3987,2.3981,2.3934,2.3936,2.3933,2.3925,2.392,2.39,2.3873,2.3895,2.3893,2.3888,2.3845,2.3835,2.3832,2.3803,2.3812,2.381,2.3809,2.3808,2.3763,2.3763,0,0,0,0,0,0,2.3993,2.3984,2.3936,2.3933,2.3958,2.3924,2.3918,2.3908,2.3873,2.3868,2.3888,2.3887,2.3839,2.3834,2.383,2.3815,2.381,2.3808,2.3807,2.3763,2.3763,2.3763,0,0,0,0,0,0,2.3994,2.3989,2.3938,2.3958,2.3951,2.3923,2.3912,2.3907,2.3898,2.3868,2.3862,2.3884,2.3839,2.3833,2.3814,2.3812,2.3807,2.3805,2.3762,2.3763,2.3763,2.3785,0,0,0,0,0,0,2.3996,2.399,2.3987,2.3958,2.395,2.3925,2.3912,2.3906,2.3895,2.3893,2.3862,2.3857,2.3838,2.3817,2.3812,2.381,2.3803,2.3762,2.3763,2.3763,2.3785,2.3786,2.3788,0,0,0,0,0,2.3999,2.3994,2.3987,2.3981,2.3946,2.3925,2.392,2.39,2.3895,2.3891,2.3871,2.3858,2.3814,2.3815,2.3809,2.3806,2.3762,2.3762,2.3763,2.3784,2.3786,2.3787,0,0,0,0,0,0,2.4022,2.399,2.3982,2.3968,2.3949,2.392,2.3914,2.3902,2.3884,2.3882,2.3856,2.385,2.3833,2.3818,2.382,2.3794,2.3786,2.3785,2.3805,2.3806,2.3808,2.3812,2.3802,0,0,0,0,0,2.4026,2.4013,2.3985,2.3976,2.3967,2.3943,2.3933,2.3919,2.3898,2.3889,2.3868,2.3847,2.3828,2.3816,2.3798,2.3782,2.3774,2.3777,2.3778,2.378,2.3779,2.3768,2.3769,2.3763,2.3763,2.3763,0,0,2.4034,2.4015,2.4008,2.398,2.3964,2.395,2.3936,2.3921,2.391,2.3886,2.3868,2.3852,2.3826,2.3809,2.38,2.3795,2.3779,2.378,2.3781,2.3779,2.3768,2.3769,2.377,2.3763,2.3763,2.3763,0,0,2.404,2.4025,2.4015,2.3999,2.3976,2.3959,2.3957,2.3929,2.3918,2.3899,2.3881,2.3866,2.3834,2.3816,2.3803,2.3802,2.3788,2.3796,2.3804,2.3794,2.3794,2.3795,2.3793,2.3793,2.3796,2.3796,2.3796,0,2.4051,2.4031,2.4011,2.3997,2.3985,2.3965,2.3954,2.3939,2.3909,2.3901,2.3896,2.3856,2.3837,2.3815,2.3815,2.3805,2.38,2.38,2.3796,2.3796,2.3796,2.3794,2.3794,2.3797,2.3797,2.3797,2.3796,0,2.4046,2.4031,2.4026,2.4,2.3987,2.3975,2.3951,2.394,2.3927,2.3911,2.3891,2.3868,2.3844,2.3837,2.3824,2.3813,2.381,2.3801,2.3793,2.3798,2.3796,2.3795,2.3798,2.3798,2.3798,2.3797,0,0,2.4065,2.4028,2.4027,2.4014,2.3986,2.3974,2.396,2.3938,2.3928,2.3908,2.3895,2.3869,2.386,2.3845,2.3829,2.3821,2.382,2.3812,2.3811,2.3814,2.3804,2.3811,2.3811,2.3811,2.3811,2.381,2.3806,0,2.4067,2.4043,2.4024,2.4006,2.3992,2.3972,2.3959,2.394,2.3924,2.3908,2.3889,2.3871,2.3861,2.3852,2.3843,2.3822,2.3817,2.3822,2.3796,2.3796,2.3803,2.381,2.3817,2.3815,2.3806,2.3805,2.3805,0,2.4065,2.4048,2.4029,2.4002,2.3995,2.3985,2.3962,2.3948,2.3925,2.3913,2.3897,2.3881,2.3863,2.3857,2.3831,2.3835,2.3823,2.3811,2.381,2.3807,2.3801,2.3806,2.3813,2.3813,2.3804,2.3804,2.3804,0,2.4081,2.4052,2.4037,2.4027,2.3995,2.3988,2.3974,2.3951,2.3939,2.3918,2.391,2.3887,2.3874,2.3856,2.3834,2.3832,2.381,2.3802,2.3799,2.3799,2.3795,2.3795,2.38,2.3788,2.3788,2.3788,2.3788,0,2.4084,2.4073,2.4043,2.4034,2.4021,2.3999,2.3985,2.3969,2.3949,2.3935,2.3915,2.3902,2.3873,2.3856,2.3838,2.3819,2.3813,2.3803,2.3798,2.3804,2.3805,2.3796,2.3795,2.3788,2.3788,2.3788,2.3788,0,2.4099,2.4079,2.4061,2.4033,2.4025,2.4016,2.3991,2.398,2.3963,2.3946,2.394,2.3912,2.3891,2.3867,2.3837,2.3825,2.3806,2.38,2.3815,2.3812,2.381,2.381,2.3808,2.3806,2.3796,2.3797,2.3797,0,2.4102,2.4093,2.4064,2.4054,2.4042,2.4025,2.4013,2.399,2.3978,2.395,2.3942,2.392,2.3901,2.3867,2.3843,2.3819,2.3812,2.3812,2.3808,2.3814,2.3811,2.3811,2.381,2.3814,2.3814,2.3814,2.3814,0,2.4109,2.41,2.4083,2.4063,2.4049,2.4032,2.4014,2.4006,2.3979,2.3966,2.3945,2.393,2.39,2.3877,2.3851,2.3834,2.3819,2.3816,2.3814,2.382,2.3829,2.3823,2.3818,2.3816,2.3816,2.3816,2.3816,2.3816,2.4118,2.4109,2.4087,2.4069,2.4053,2.4037,2.4025,2.4007,2.399,2.3965,2.3952,2.393,2.3906,2.3869,2.3853,2.3835,2.383,2.3827,2.3826,2.3825,2.3827,2.3832,2.383,2.383,2.3829,2.3829,2.3829,0,2.4124,2.4109,2.4093,2.4068,2.4054,2.4043,2.4022,2.401,2.3992,2.3971,2.3953,2.3928,2.3906,2.388,2.3856,2.3846,2.3838,2.384,2.384,2.3836,2.3833,2.3837,2.3846,2.3846,2.3846,2.3846,2.3846,2.3846,2.4125,2.4109,2.4097,2.4073,2.4057,2.4038,2.4026,2.401,2.3994,2.3967,2.3949,2.3933,2.391,2.3884,2.3862,2.3855,2.3846,2.385,2.3841,2.3838,2.3837,2.3835,2.3839,2.3849,2.3849,2.3846,2.3846,2.3846]}]]